Regional Weather Roundup
Issued by NWS Charleston, WV

Home | Current Version | Previous Version | Text Only | Print | Product List | Glossary Off
Versions: 1 2 3 4 5 6 7 8 9 10 11 12 13 14 15 16 17 18 19 20 21 22 23 24 25 26 27 28

000
ASUS41 KRLX 050810
RWRRLX
West Virginia Regional Weather Roundup
National Weather Service Charleston WV
400 AM EDT THU MAY 05 2016

Note: "fair" indicates few or no clouds below 12,000 feet with no
significant weather and/or obstructions to visibility.

WVZ003-050900-
Northern Panhandle of West Virginia

CITY           SKY/WX    TMP DP  RH WIND       PRES   REMARKS
WHEELING       LGT RAIN  49  46  90 SE3       29.66F
$$

WVZ009-050900-
Northwest West Virginia

CITY           SKY/WX    TMP DP  RH WIND       PRES   REMARKS
PARKERSBURG    CLOUDY    48  46  93 NW6       29.69F
$$

WVZ006-050900-
Western West Virginia

CITY           SKY/WX    TMP DP  RH WIND       PRES   REMARKS
HUNTINGTON     MOCLDY    45  42  89 CALM      29.71S
$$

WVZ015-050900-
West Central West Virginia

CITY           SKY/WX    TMP DP  RH WIND       PRES   REMARKS
CHARLESTON     LGT RAIN  48  44  86 NW6       29.68F FOG
$$

WVZ022-031-050900-
North Central West Virginia

CITY           SKY/WX    TMP DP  RH WIND       PRES   REMARKS
CLARKSBURG     CLOUDY    49  47  93 CALM      29.65F
MORGANTOWN     CLOUDY    50  45  83 CALM      29.66F HAZE
$$

WVZ025-035-042-045-050900-
Southern West Virginia

CITY           SKY/WX    TMP DP  RH WIND       PRES   REMARKS
BECKLEY        LGT RAIN  43  41  93 NW6       29.65S
LOGAN          NOT AVBL
BLUEFIELD      RAIN      43  41  93 W8        29.65F
LEWISBURG      CLOUDY    46  45  96 CALM      29.64S
$$

WVZ047-050900-
Northern Mountains of West Virginia

CITY           SKY/WX    TMP DP  RH WIND       PRES   REMARKS
ELKINS         RAIN      47  43  86 CALM      29.66S
$$

WVZ052-050900-
Eastern Panhandle of West Virginia

CITY           SKY/WX    TMP DP  RH WIND       PRES   REMARKS
MARTINSBURG    CLOUDY    50  48  93 E3        29.67S
PETERSBURG     CLOUDY    51  49  90 CALM      29.65S
$$




USA.gov is the U.S. government's official web portal to all federal, state and local government web resources and services.